Millbury, OH

1:52 PM EST on December 10, 2016 (GMT -0500)
Metcalf

Weather History for KTDZ - July, 2013

Change the Weather History Date:

Tuesday, July 9, 2013

  Actual Average (KTOL) Record (KTOL)
Temperature  
Mean Temperature 79 °F -  
Max Temperature 87 °F 84 °F 100 °F (1936)
Min Temperature 71 °F 64 °F 43 °F (1961)
Cooling Degree Days 14    
Growing Degree Days 29 (Base 50)    
Moisture  
Dew Point 71 °F    
Average Humidity 87    
Maximum Humidity 100    
Minimum Humidity 65    
Precipitation  
Precipitation 0.42 in - - ()
Sea Level Pressure  
Sea Level Pressure 29.98 in    
Wind  
Wind Speed 7 mph (WSW)    
Max Wind Speed 13 mph    
Max Gust Speed 16 mph    
Visibility 7 miles    
Events Rain    
Averages and records for this station are not official NWS values.
T = Trace of Precipitation, MM = Missing Value Source: NWS Daily Summary

Daily Weather History Graph

Daily Weather History Graph

Search for Another Location

Airport or City:

Trip Planner

Search our weather history database for the weather conditions in past years. The results will help you decide how hot, cold, wet, or windy it might be!

Date:

Astronomy

Jul. 09, 2013 Rise Set
Actual Time 6:08 AM EDT 9:09 PM EDT
Civil Twilight 5:35 AM EDT 9:42 PM EDT
Nautical Twilight 4:52 AM EDT 10:25 PM EDT
Astronomical Twilight 4:02 AM EDT 11:14 PM EDT
Moon 7:33 AM EDT (7/9) 9:44 PM EDT (7/9)
Length of Visible Light 16h 07m
Length of Day
15h 00m
New Moon, 2% of the Moon is Illuminated
Jul 9
New Moon
Jul 15
First Quarter
Jul 22
Full
Jul 29
Last Quarter
Aug 6
New

Hourly Weather History & Observations

Time (EDT) Temp. Heat Index Dew Point Humidity Pressure Visibility Wind Dir Wind Speed Gust Speed Precip Events Conditions
12:53 AM 72.0 °F - 70.0 °F 93% 29.98 in 9.0 mi South 11.5 mph - 0.03 in   Mostly Cloudy
1:35 AM 71.6 °F - 69.8 °F 94% 30.00 in 1.5 mi SW 8.1 mph - 0.19 in Rain Heavy Rain
1:46 AM 71.6 °F - 69.8 °F 94% 30.00 in 2.5 mi Variable 6.9 mph - 0.31 in Rain Light Rain
1:49 AM 71.6 °F - 69.8 °F 94% 30.01 in 7.0 mi Calm Calm - 0.31 in Rain Light Rain
1:53 AM 73.0 °F - 70.0 °F 90% 29.99 in 9.0 mi Variable 6.9 mph 16.1 mph 0.32 in   Overcast
2:09 AM 73.4 °F - 69.8 °F 88% 30.00 in 10.0 mi Variable 3.5 mph - N/A   Mostly Cloudy
2:24 AM 71.6 °F - 69.8 °F 94% 30.00 in 10.0 mi Calm Calm - N/A   Scattered Clouds
2:53 AM 72.0 °F - 70.0 °F 93% 29.98 in 9.0 mi South 5.8 mph - N/A   Mostly Cloudy
3:53 AM 71.1 °F - 70.0 °F 96% 29.98 in 8.0 mi SSW 4.6 mph - N/A   Scattered Clouds
4:53 AM 71.1 °F - 70.0 °F 96% 29.98 in 6.0 mi SW 5.8 mph - N/A   Clear
5:53 AM 71.1 °F - 70.0 °F 96% 29.98 in 4.0 mi WSW 3.5 mph - N/A   Clear
6:28 AM 71.6 °F - 69.8 °F 94% 30.00 in 2.5 mi WSW 6.9 mph - N/A   Partly Cloudy
6:38 AM 71.6 °F - 71.6 °F 100% 30.00 in 3.0 mi WSW 4.6 mph - N/A   Mostly Cloudy
6:53 AM 72.0 °F - 71.1 °F 97% 29.99 in 3.0 mi WSW 5.8 mph - N/A   Mostly Cloudy
7:53 AM 73.9 °F - 72.0 °F 93% 29.99 in 4.0 mi WSW 5.8 mph - N/A   Scattered Clouds
8:07 AM 75.2 °F - 73.4 °F 94% 30.01 in 4.0 mi WSW 8.1 mph - N/A   Mostly Cloudy
8:28 AM 75.2 °F - 73.4 °F 94% 30.01 in 5.0 mi West 6.9 mph - N/A   Overcast
8:53 AM 75.9 °F - 73.0 °F 91% 30.00 in 5.0 mi West 5.8 mph - N/A   Overcast
9:53 AM 75.9 °F - 72.0 °F 87% 30.00 in 5.0 mi West 9.2 mph - N/A   Overcast
10:53 AM 78.1 °F - 73.0 °F 84% 30.00 in 6.0 mi WNW 10.4 mph - N/A   Haze
11:53 AM 79.0 °F - 73.0 °F 82% 30.00 in 7.0 mi WNW 9.2 mph - N/A   Overcast
12:33 PM 80.6 °F 85.4 °F 73.4 °F 79% 30.01 in 7.0 mi WNW 8.1 mph - N/A   Mostly Cloudy
12:53 PM 82.9 °F 89.4 °F 73.9 °F 74% 29.99 in 8.0 mi WSW 6.9 mph - N/A   Mostly Cloudy
1:53 PM 84.9 °F 92.1 °F 73.9 °F 69% 29.98 in 9.0 mi WSW 6.9 mph - N/A   Mostly Cloudy
2:37 PM 87.8 °F 97.6 °F 75.2 °F 66% 29.98 in 9.0 mi WSW 12.7 mph - N/A   Mostly Cloudy
2:53 PM 86.0 °F 93.8 °F 73.9 °F 67% 29.96 in 9.0 mi SW 6.9 mph - N/A   Mostly Cloudy
3:53 PM 86.0 °F 93.0 °F 73.0 °F 65% 29.94 in 9.0 mi West 5.8 mph - N/A   Mostly Cloudy
4:53 PM 78.1 °F - 68.0 °F 71% 29.95 in 10.0 mi WSW 6.9 mph - N/A   Mostly Cloudy
5:53 PM 73.9 °F - 70.0 °F 87% 29.96 in 10.0 mi WNW 12.7 mph - 0.06 in Rain Light Rain
6:53 PM 73.9 °F - 71.1 °F 91% 29.92 in 10.0 mi West 8.1 mph - 0.01 in   Scattered Clouds
7:53 PM 75.0 °F - 71.1 °F 87% 29.93 in 10.0 mi West 5.8 mph - N/A   Scattered Clouds
8:53 PM 73.9 °F - 71.1 °F 91% 29.93 in 10.0 mi South 6.9 mph - N/A   Mostly Cloudy
9:53 PM 75.0 °F - 71.1 °F 87% 29.94 in 10.0 mi South 4.6 mph - N/A   Overcast
10:53 PM 75.0 °F - 72.0 °F 90% 29.95 in 10.0 mi SSW 5.8 mph - N/A   Scattered Clouds
11:53 PM 75.0 °F - 70.0 °F 84% 29.91 in 10.0 mi SW 5.8 mph - 0.00 in   Mostly Cloudy